www.pogodaiklimat.ru

Погода и климат >> Архив погоды >> Россия >> Красноярский край >> Балахта


ПОГОДА в Балахте

  • Прогноз погоды в Балахте
  • Монитор погоды в Балахте

АРХИВ ПОГОДЫ в Балахте

Время (UTC), дата Ветер
(напр.,м/с)
 
Видим.   Явления Облачность Т
(С)
Тd
(С)
f
(%)
Тe
(С)
Тes
(С)
Комфортность P
(гПа)
Po
(гПа)
Тmin
(С)
Tmax
(С)
R
(мм)
R24
(мм)
S
(см)
18 15.04 штиль 0 50 км 10/0
[Cs]
-3.6 -7.2 76 -4 -4 1008.4 968.3
21 15.04 СВ 2 50 км 8/0
[Cs]
-2.5 -10.3 55 -6 -6 1005.9 966.0
00 16.04 СВ 2 50 км 10/0
[Ac As]
-2.7 -10.2 56 -6 -6 1005.4 965.5 -3.7
03 16.04 В 3 50 км 3/0
[Ci sp]
+0.9 -9.3 46 -3 +3 1005.0 965.6
06 16.04 СВ 4 50 км ясно +3.6 -8.4 41 -0 +8 1005.0 966.0
09 16.04 ЮЗ 3 50 км 3/3 1000 м
[Cu hum]
+5.4 -9.6 33 +3 +7 1006.9 968.1
12 16.04 З 3 50 км 3/3 1000 м
[Sc]
+5.0 -9.9 33 +2 +3 1008.7 969.7 +6.6
15 16.04 штиль 0 50 км ясно -0.2 -11.8 41 -0 -0 1011.6 971.8
18 16.04 штиль 0 50 км ясно -5.1 -9.6 71 -6 -6 1014.0 973.3
21 16.04 штиль 0 50 км ясно -6.6 -9.4 80 -7 -7 1014.8 974.0
00 17.04 штиль 0 20 км 3/0
[Ci fib]
-5.5 -7.7 84 -6 -6 1015.9 975.1 -7.8
03 17.04 ЮЗ 2 20 км 9/0
[Ac lent Ci sp]
+3.1 -5.2 54 +1 +5 1014.1 974.8
06 17.04 Ю 4 50 км 8/8 1000 м
[Cu med, cong]
+7.2 -5.4 40 +4 +6 1012.4 973.7
09 17.04 ЮЗ 4 50 км 8/8 1000 м
[Cu Sc]
+8.5 -6.1 35 +6 +7 1009.9 971.4
12 17.04 Ю 3 20 км 4/0
[Ac lent]
+6.9 -8.2 33 +5 +5 1008.3 969.6 +8.9
15 17.04 Ю 3 20 км ясно +3.2 -7.6 45 0 0 1007.7 968.6
18 17.04 В 1 20 км 8/0
[Ac und]
-0.1 -6.4 62 -2 -2 1006.8 967.1
21 17.04 СВ 1 20 км 8/0
[Ac und]
-0.1 -4.9 70 -2 -2 1004.6 965.0
00 18.04 Ю 3 50 км 10/10
[Sc]
+2.7 -3.9 62 -1 -1 998.9 960.0 -1.7
03 18.04 Ю 4-10
{12}
50 км {ливн. осадки} 10/10 1000 м
[Sc]
+5.8 -3.6 51 +3 +3 993.5 955.2
06 18.04 ЮЗ 7-15
{20}
20 км пыльный позёмок {ливн. осадки} 10/10 1000 м
[Sc]
+5.0 -2.6 58 0 0 994.2 955.9
09 18.04 З 7-15
{22}
20 км слаб. ливневой снег 9/9 600 м
[Cb cap]
+1.1 -3.1 74 -5 -5 1001.7 962.6
12 18.04 З 7-15
{17}
20 км в посл. час ливневой снег 6/3 600 м
[Cb cap Ac lent]
-0.5 -10.3 47 -7 -7 1009.2 969.5 +6.0 0.5
15 18.04 З 6-11
{16}
20 км 9/9 1000 м
[Cb cap]
-5.2 -14.3 49 -12 -12 1014.2 973.5
18 18.04 ЮЗ 7-15
{15}
20 км в посл. час ливневой снег 9/9 600 м
[Cb cap]
-8.0 -14.8 58 -17 -17 1017.8 976.6
21 18.04 ЮЗ 6-12
{15}
4000 м слаб. ливневой снег 10/10 600 м
[Cb cap]
-7.7 -11.7 73 -16 -16 1020.6 979.4
00 19.04 З 5
{15}
2000 м слаб. ливневой снег 10/10 600 м
[Cb cap]
-6.8 -8.8 86 -14 -14 1025.8 984.4 -8.3 0.3 <0.5
03 19.04 З 6-11
{13}
20 км в посл. час ливневой снег {метель} 10/10 600 м
[Cb cap]
-4.2 -11.1 59 -11 -11 1025.8 984.9
06 19.04 З 6-11
{13}
20 км {ливн. осадки, метель} 8/8 600 м
[Cb cap]
0.0 -12.6 38 -6 -5 1026.1 985.7
09 19.04 З 6
{12}
20 км 6/6 600 м
[Cb cap]
+1.9 -12.6 33 -3 -2 1025.9 985.8
12 19.04 ЮЗ 4
{10}
50 км 3/3 1000 м
[Sc]
+1.5 -12.3 35 -3 -2 1024.3 984.3 +2.3 0.0
15 19.04 штиль 0 50 км 6/0
[Ci fib]
-3.8 -13.0 49 -4 -4 1024.3 983.3
18 19.04 В 2 50 км 6/0
[Ci sp]
-7.2 -12.0 69 -11 -11 1022.8 981.5
21 19.04 В 2 50 км 6/0
[Ci sp]
-9.1 -12.0 79 -14 -14 1021.3 979.8
00 20.04 штиль 0 50 км 9/0
[Ci sp]
-9.2 -11.2 85 -10 -9 1019.8 978.3 -10.0
03 20.04 ЮВ 2 50 км 3/0
[Ci fib]
+1.2 -10.7 41 -1 +6 1016.3 976.6
06 20.04 В 2 50 км 8/0
[Cs]
+3.8 -9.5 37 +2 +12 опасность
простуды
1014.6 975.2
09 20.04 ЮЗ 2 50 км 8/0
[Ci sp]
+6.3 -13.1 23 +5 +11 1011.0 972.2
12 20.04 СЗ 1 50 км 8/0
[Ci sp]
+5.9 -12.1 26 +6 +6 1010.0 971.0 +7.4
15 20.04 В 2 50 км 8/0
[Ci sp]
-0.2 -10.8 45 -3 -3 1010.1 970.4
18 20.04 штиль 0 50 км 8/0
[Ci sp]
-2.3 -8.7 61 -3 -3 1009.5 969.5
21 20.04 штиль 0 50 км 6/0
[Ac und]
-4.5 -8.4 74 -5 -5 1009.7 969.4
00 21.04 штиль 0 20 км 10/0
[Ac As]
-3.4 -7.0 76 -4 -4 1010.3 970.1 -5.0
03 21.04 З 2 50 км 10/0
[Ac As]
+2.9 -5.0 56 0 +3 1009.4 970.1
06 21.04 З 4-10
{10}
20 км 9/9 600 м
[Cb cap]
+5.0 -5.6 46 +2 +2 1009.6 970.6
09 21.04 ЮЗ 3
{12}
20 км в посл. час ливневой снег 9/9 600 м
[Cb cap]
+4.6 -1.1 66 +1 +2 1010.7 971.6
12 21.04 ЮЗ 3
{14}
20 км слаб. ливневой снег 9/9 600 м
[Cb cap]
+0.8 +0.3 96 -4 -4 1013.5 973.6 +6.5 0.5
15 21.04 З 2 20 км {ливн. осадки} 8/8 600 м
[Cb cap]
-0.3 -1.8 90 -4 -4 1015.9 975.9
18 21.04 З 1 20 км {ливн. осадки} 3/3 1000 м
[Sc]
-2.8 -6.2 77 -5 -5 1019.1 978.7
21 21.04 штиль 0 20 км ясно -5.7 -9.5 75 -6 -6 1021.8 980.9
00 22.04 штиль 0 50 км 3/0
[Ac lent]
-7.5 -10.1 82 -8 -7 1024.4 983.0 -8.3 0.3 <0.5
03 22.04 ЮЗ 2 50 км 8/8 1000 м
[Cu med, cong]
-1.9 -10.3 53 -5 -4 1025.1 984.5
06 22.04 СЗ 4 50 км 4/4 1000 м
[Cu med, cong]
+1.7 -9.2 44 -3 +3 1024.8 984.8
09 22.04 СЗ 3 50 км 3/3 1000 м
[Cu med, cong]
+4.4 -11.1 31 +2 +6 1024.1 984.5
12 22.04 З 3 50 км ясно +5.2 -12.4 27 +3 +3 1023.9 984.3 +5.5
15 22.04 В 1 50 км ясно -2.3 -10.5 53 -4 -4 1025.4 984.8

 

Местоположение метеостанции Балахта (Красноярский край, Россия): широта 55.38 долгота 91.67 высота над уровнем моря 321 м.

В архиве по умолчанию представлена погода в Балахте за последнюю неделю. Архивные данные за месяц целиком и за предыдущие месяцы, начиная с января 2011 года, Вы можете получить, выбрав интересующий диапазон дат из раскрывающегося списка и нажав кнопку "Ввод!".


*Определитесь, кто Вы:
робот инопланетянин человек

Внимание! Время в таблицах - всемирное. Для получения местного времени необходимо прибавить поправку, которая равна 7 ч.

Смотрите также архив погоды в соседних городах и на ближайших метеорологических станциях:

Погода в Светлолобово (Красноярский край, Россия) (62 км)
Погода в Шумихе (Красноярский край, Россия) (75 км)
Погода в Кемчуге (Красноярский край, Россия) (80 км)
Погода в Каче (Красноярский край, Россия) (89 км)
Погода в Роевом Ручье (Красноярский край, Россия) (93 км)
Погода в Красноярске (Красноярский край, Россия) (99 км)
Погода в Минино (Красноярский край, Россия) (101 км)
Погода в Емельяново (Красноярский край, Россия) (102 км)
Погода в Первомайском (Хакасия, Россия) (103 км)
Погода в Назарово (Красноярский край, Россия) (111 км)

Пояснения к столбцам:

Ветер - указаны скорость ветра в м/с - средняя за 10 мин, порывы в срок и между сроками (в фигурных скобках) и направление, откуда дует ветер: С - северный, СВ - северо-восточный, В - восточный, ЮВ - юго-восточный, Ю - южный, ЮЗ - юго-западный, З - западный, СЗ - северо-западный.
Видимость - горизонтальная дальность видимости в метрах или километрах. При видимости от 1 до 10 км при отсутствии осадков обычно наблюдается дымка, при ухудшении видимости до 1 км и менее - туман. В сухую погоду видимость может ухудшаться дымом, пылью или мглою.
Явления - указаны атмосферные явления, наблюдавшиеся в срок или в последний час перед сроком; фигурными скобками обозначены явления, наблюдавшиеся между сроками (за 1-3 часа до срока); квадратными скобками обозначены град или гололедные отложения с указанием их диаметра в мм.
Облачность - указаны через наклонную черту общая и нижняя облачность в баллах и высота нижней границы облаков в метрах; квадратными скобками обозначены формы облаков: Ci - перистые, Cs - перисто-слоистые, Cc - перисто-кучевые, Ac - высококучевые, As - высокослоистые, Sc - слоисто-кучевые, Ns - слоисто-дождевые, Cu - кучевые, Cb - кучево-дождевые. Подробнее классификацию облаков см. в Атласе облаков (PDF).
T - Температура воздуха - температура, измеренная на высоте 2 м над землей.
Td - Температура точки росы - температура, при понижении до которой содержащийся в воздухе водяной пар достигнет насыщения.
f - Относительная влажность воздуха - влажноcть воздуха, измеренная на высоте 2 м над землей.
Te - Эффективная температура - температура, которую ощущает одетый по сезону человек в тени. Характеристика душности погоды. При расчете учитывается влияние влажности воздуха и скорости ветра на теплоощущения человека.
Tes - Эффективная температура на солнце - температура, которую ощущает человек, с поправкой на солнечный нагрев. Характеристика знойности погоды. Зависит от высоты солнца над горизонтом, облачности и скорости ветра. Ночью, в пасмурную погоду, а также при ветре 12 м/с и более поправка равна нулю.
P - Атмосферное давление - приведенное к уровню моря атмосферное давление.
Po - Атмосферное давление - измеренное на уровне метеостанции атмосферное давление.
Tmin - Минимальная температура - минимум температуры воздуха на высоте 2 м над землей.
Tmax - Максимальная температура - максимум температуры воздуха на высоте 2 м над землей.
R - Количество осадков - Количество выпавших осадков за период времени, мм. При наведении курсора мыши на число - период времени, за который выпало указанное количество осадков.
R24 - Количество осадков - Количество выпавших осадков за 24 часа, мм.
S - Снежный покров - Высота снежного покрова, см. При наведении курсора мыши на число - состояние снежного покрова и степень покрытия местности в баллах.